Terminal Aerodrome Forecast
Issued by NWS

Home | Current Version | Previous Version | Text Only | Print | Product List | Glossary On
Versions: 1 2 3 4 5 6 7 8 9 10 11 12 13 14 15 16 17 18 19 20 21 22
000
FTUS43 KJKL 231100
TAFSJS
TAF
KSJS 231120Z 2312/2412 25006KT P6SM VCSH BKN050
     FM231800 29005KT 3SM -TSRA BKN030CB
     FM232200 29009KT P6SM VCTS BKN020CB
     FM240600 VRB04KT 2SM BR OVC010=

USA.gov is the U.S. government's official web portal to all federal, state and local government web resources and services.